Wind_Speed
45 43 42 42 40 36 36 40 45 47 48 49 50 49 48 48 49 48 47 44 43 42 41 39 38 36 36 36 36 36 35 35 34 34 34 34 35 35 35 35 36 37 37
44 41 40 41 39 36 34 35 38 41 43 45 46 46 46 47 47 48 47 44 43 43 42 41 40 38 37 37 37 37 37 36 35 35 35 35 35 35 36 36 37 38 39
42 39 38 40 39 36 35 34 35 35 39 41 42 45 45 44 43 44 43 42 42 41 40 40 39 38 37 37 37 37 37 37 37 36 36 36 36 36 36 38 39 40 41
40 38 36 36 36 36 33 33 34 34 34 38 40 42 43 43 42 41 40 41 40 39 39 39 39 38 38 38 38 38 38 38 37 37 37 38 38 37 37 38 39 41 41
39 38 35 35 34 33 31 29 31 32 32 32 34 37 39 41 41 41 41 41 42 42 41 40 40 40 41 41 40 39 39 38 38 38 38 38 38 39 39 39 40 41 41
35 35 34 34 33 33 30 29 29 28 30 32 33 34 35 37 40 41 44 44 45 45 44 44 43 43 43 42 41 39 39 38 38 38 38 38 38 39 40 40 40 41 42
32 34 32 31 31 32 32 30 29 29 29 31 32 33 33 34 35 38 39 40 41 43 43 44 45 44 43 42 41 40 39 38 37 38 38 38 38 39 40 41 42 43 44
28 30 30 30 30 31 31 29 30 30 30 31 31 33 34 33 33 34 35 37 38 38 38 40 40 41 41 40 39 39 37 37 38 38 38 39 40 41 42 43 44 45 45
25 26 28 31 31 31 30 29 30 30 30 32 33 34 34 35 35 34 34 36 37 38 38 37 37 38 38 39 38 38 38 38 38 38 39 40 41 42 42 43 44 45 45
22 23 26 28 31 33 31 31 31 31 32 32 33 34 35 34 35 35 35 36 37 38 38 38 38 38 38 38 39 39 39 39 39 40 41 41 42 43 43 44 45 46 46
21 23 25 26 29 32 33 32 32 33 33 34 34 34 36 36 36 36 36 37 37 37 38 38 38 38 39 40 40 41 40 40 41 41 41 42 43 44 44 45 45 45 46
21 23 25 26 28 30 32 34 35 35 35 36 36 36 37 38 38 37 37 38 38 38 38 39 40 39 40 41 42 42 42 42 42 42 42 43 44 44 44 44 44 45 45
21 24 26 28 29 31 32 34 35 37 37 37 38 39 39 41 41 41 41 41 41 41 41 42 42 42 42 43 43 43 44 44 44 43 43 44 44 43 43 44 44 44 44
22 24 26 28 30 32 34 35 37 39 40 40 41 41 43 44 44 44 44 44 44 44 44 44 44 45 45 45 45 45 45 44 44 44 43 43 43 43 43 43 43 43 43
22 25 27 29 31 33 35 36 38 40 41 42 43 44 45 46 46 46 46 46 46 46 46 46 45 45 45 45 45 44 44 44 44 43 43 43 42 42 42 42 42 42 41
24 26 28 30 32 35 36 38 40 42 43 44 45 46 47 48 48 48 48 48 48 48 47 47 46 46 45 45 45 45 45 44 44 44 43 43 42 42 42 42 41 41 40
26 28 31 33 35 37 39 41 43 44 46 47 48 49 49 49 49 49 49 49 49 49 49 49 48 47 47 47 46 46 46 45 44 44 43 43 42 42 41 40 40 40 39
29 31 34 36 38 40 42 44 46 47 48 49 50 51 52 51 51 51 52 51 51 51 51 50 50 49 49 48 48 47 46 45 45 44 43 42 42 41 40 40 39 39 38
32 34 36 39 41 43 44 46 48 49 51 51 52 52 52 52 52 52 52 52 52 51 51 51 50 50 49 49 48 47 46 46 45 43 43 42 40 40 39 39 38 38 37
35 37 40 42 43 45 46 48 49 50 51 51 52 52 52 52 52 52 52 51 51 50 50 49 49 49 49 48 48 47 46 45 44 42 42 41 40 39 39 38 37 37 36
37 40 41 43 45 47 48 50 51 53 53 52 52 52 52 51 51 51 51 50 50 50 49 49 48 48 47 47 47 46 45 44 43 42 41 40 39 39 38 37 36 35 34
40 42 44 46 47 49 50 52 53 54 54 54 53 53 52 51 51 50 50 50 49 49 48 48 48 47 46 46 46 45 45 43 43 42 41 40 39 38 37 36 35 34 34
42 44 46 48 50 51 53 54 55 56 56 55 55 54 53 53 52 51 50 49 49 48 47 47 47 47 46 46 46 45 44 43 42 41 40 39 38 37 36 35 35 34 33
44 46 48 50 52 54 55 56 57 57 57 57 56 55 55 54 53 52 51 49 48 48 47 47 46 46 45 45 46 45 44 43 42 41 40 39 38 37 36 35 34 33 32
46 48 50 51 52 54 55 55 56 55 55 55 54 54 54 53 52 51 50 49 48 48 47 47 46 46 46 45 45 45 44 43 42 41 40 39 38 37 36 35 34 33 32
48 49 51 51 52 53 54 53 53 53 53 52 52 51 51 51 51 51 50 49 48 48 47 47 47 46 45 45 45 45 44 43 42 41 40 39 38 37 36 35 34 33 32
Wind_Direction
213 213 214 216 216 214 213 213 215 212 213 214 216 216 218 220 221 223 226 227 230 232 234 236 239 243 246 249 251 254 256 257 260 262 265 267 270 273 275 278 280 282 284
213 215 216 217 219 216 212 208 211 214 214 215 216 217 219 221 223 225 228 230 232 233 236 238 241 245 248 250 253 255 257 258 261 263 265 268 270 273 276 279 282 283 284
214 216 218 218 219 218 215 210 211 216 218 218 219 220 221 223 226 227 230 233 236 238 240 242 244 245 249 251 253 255 258 260 261 263 267 270 271 274 277 280 282 283 285
215 215 216 220 223 224 222 218 216 217 219 220 220 221 222 225 228 230 233 234 236 238 241 243 245 247 249 251 253 256 259 261 263 265 268 270 273 276 278 280 282 284 285
216 218 219 221 225 227 226 224 223 224 226 224 223 224 226 229 231 234 235 238 239 241 242 244 246 249 251 252 254 257 259 262 264 266 269 271 274 277 279 281 282 283 285
217 220 222 225 229 230 231 231 231 234 233 231 228 228 230 233 234 236 238 240 241 242 244 246 248 250 252 253 255 256 258 262 265 267 269 271 274 278 280 282 283 285 286
219 221 224 228 231 235 237 237 237 238 236 233 233 232 234 235 238 237 238 241 243 243 245 247 248 249 252 253 255 257 260 263 266 268 270 272 276 279 282 283 284 286 287
218 224 228 230 233 238 239 240 239 240 241 239 239 238 240 241 244 242 241 243 245 245 248 249 249 251 253 255 258 261 262 264 267 270 273 276 279 281 283 284 285 286 287
224 229 230 231 235 237 238 239 241 242 244 244 246 246 248 249 250 249 249 248 248 250 252 253 253 254 255 257 259 262 263 266 269 273 276 278 280 282 284 285 286 286 287
228 233 233 233 235 237 239 242 245 247 247 248 250 252 251 253 253 251 253 253 253 253 253 255 257 258 258 259 260 264 266 269 272 275 277 279 281 283 284 285 286 287 288
232 235 236 236 237 240 242 245 248 249 250 250 252 253 252 254 255 255 255 255 255 255 256 257 258 259 261 263 265 267 269 272 274 276 278 280 282 283 284 285 286 287 288
237 238 240 241 242 244 246 248 249 251 253 253 254 254 254 254 254 255 255 255 256 256 258 258 259 261 263 264 266 267 269 272 274 276 278 280 281 283 284 284 286 287 287
238 239 242 245 245 247 248 249 251 252 254 255 255 255 255 256 256 256 257 257 257 258 258 260 261 262 263 264 265 266 269 271 274 276 277 278 280 282 283 284 285 286 286
244 245 247 248 248 248 249 250 252 253 255 255 255 256 258 258 259 259 260 260 260 260 261 262 262 263 263 265 266 267 269 271 273 274 276 277 278 280 282 283 284 285 285
251 251 252 253 252 252 252 253 253 254 255 255 256 257 258 259 259 259 260 261 261 261 261 262 263 264 265 265 266 267 269 270 271 272 274 275 277 279 281 282 283 284 284
256 257 257 257 257 257 257 256 256 257 257 257 257 258 258 259 259 260 260 260 261 261 261 261 262 263 264 264 265 266 267 269 270 271 273 274 276 278 280 281 282 283 284
259 260 261 261 261 260 260 260 260 260 260 260 260 259 259 260 260 260 260 260 260 260 260 261 262 262 263 263 264 265 266 267 268 270 272 274 275 277 279 280 281 283 284
264 265 265 265 264 263 263 262 262 262 263 262 262 261 261 262 261 261 261 261 260 260 261 261 261 261 262 262 262 263 265 266 267 268 270 272 274 276 277 278 280 282 284
270 270 270 269 268 267 266 265 265 264 265 264 264 264 263 263 263 263 262 262 262 262 261 261 261 261 261 261 261 262 263 264 265 267 268 270 271 273 275 277 279 281 282
274 273 272 272 271 270 269 267 267 266 266 266 266 265 264 264 264 263 263 263 262 262 262 261 260 260 259 259 259 260 261 262 263 265 267 268 270 272 274 276 278 279 280
278 277 276 275 274 273 271 270 268 268 267 267 266 265 264 264 264 263 262 262 261 261 260 259 259 258 258 258 258 259 259 261 262 263 265 266 269 271 273 274 276 277 277
281 280 279 278 277 275 273 271 270 269 269 268 268 267 265 264 263 262 261 260 259 259 258 258 257 257 257 256 257 257 258 259 260 262 263 265 267 269 270 272 273 274 275
284 283 281 280 279 277 275 274 272 271 270 269 268 267 266 264 263 262 261 260 259 258 256 256 256 256 256 256 256 256 256 257 259 260 261 263 265 266 268 269 271 272 272
288 286 284 282 281 279 277 276 274 272 271 269 268 267 265 264 262 261 259 258 257 256 255 254 253 253 254 254 254 255 255 256 257 258 259 260 262 264 265 267 268 269 269
290 289 288 286 284 282 280 279 276 273 271 270 268 267 265 263 261 259 258 256 255 254 253 252 252 252 252 252 253 253 253 254 254 256 257 258 260 262 264 265 265 266 266
294 292 291 288 287 285 283 281 278 275 273 270 268 266 265 262 260 257 255 253 252 251 250 250 250 250 250 250 251 251 251 252 253 254 255 257 259 261 262 263 263 263 264
Height
5686 5693 5700 5706 5713 5719 5725 5730 5736 5741 5746 5752 5757 5761 5766 5770 5775 5779 5782 5785 5789 5792 5795 5798 5800 5802 5805 5806 5808 5809 5810 5811 5811 5812 5812 5812 5812 5812 5811 5810 5809 5808 5807
5682 5689 5695 5702 5708 5714 5719 5725 5731 5736 5742 5747 5751 5756 5760 5764 5768 5772 5775 5778 5782 5785 5788 5790 5793 5795 5797 5799 5800 5802 5803 5803 5804 5805 5804 5805 5805 5804 5804 5803 5801 5800 5799
5678 5685 5690 5697 5703 5709 5715 5720 5725 5730 5735 5740 5745 5750 5754 5758 5761 5765 5769 5772 5775 5777 5780 5783 5785 5788 5790 5791 5793 5794 5795 5795 5796 5796 5797 5797 5797 5797 5796 5794 5793 5791 5790
5673 5680 5686 5692 5698 5704 5709 5714 5720 5725 5728 5733 5739 5743 5747 5752 5755 5759 5762 5765 5768 5770 5773 5775 5778 5780 5782 5783 5784 5786 5787 5787 5788 5788 5789 5789 5789 5788 5788 5787 5785 5783 5781
5670 5676 5682 5688 5694 5699 5704 5709 5714 5718 5722 5727 5732 5736 5741 5745 5749 5752 5754 5757 5760 5763 5765 5768 5770 5772 5773 5775 5776 5777 5778 5779 5779 5780 5780 5780 5780 5779 5779 5778 5777 5775 5773
5666 5672 5678 5684 5689 5694 5699 5703 5708 5712 5716 5721 5725 5730 5734 5737 5741 5744 5747 5749 5752 5754 5757 5759 5761 5763 5765 5766 5767 5768 5769 5770 5770 5771 5771 5771 5771 5770 5769 5768 5767 5766 5764
5664 5670 5675 5681 5686 5690 5694 5699 5703 5707 5711 5715 5719 5723 5726 5730 5733 5735 5738 5740 5743 5746 5748 5750 5752 5754 5756 5757 5758 5759 5760 5761 5762 5762 5762 5762 5761 5760 5760 5759 5757 5756 5754
5663 5668 5672 5677 5682 5686 5690 5694 5698 5702 5705 5709 5712 5715 5718 5721 5724 5726 5729 5732 5734 5737 5738 5740 5742 5744 5746 5748 5749 5750 5751 5752 5752 5752 5753 5752 5752 5751 5750 5749 5747 5746 5744
5661 5665 5670 5674 5678 5682 5686 5689 5693 5696 5699 5702 5705 5708 5710 5713 5716 5718 5721 5723 5726 5728 5730 5731 5733 5735 5737 5738 5739 5740 5741 5742 5743 5743 5743 5742 5742 5741 5740 5738 5736 5735 5734
5659 5663 5666 5670 5674 5677 5681 5684 5687 5690 5692 5695 5698 5700 5703 5705 5707 5710 5712 5715 5717 5719 5721 5723 5724 5726 5727 5728 5730 5730 5731 5732 5732 5732 5732 5732 5731 5730 5729 5727 5726 5724 5722
5656 5659 5663 5666 5669 5672 5675 5678 5681 5683 5685 5688 5691 5693 5695 5697 5699 5701 5704 5706 5708 5710 5711 5713 5715 5716 5718 5719 5720 5720 5721 5721 5721 5721 5721 5721 5720 5719 5717 5716 5714 5712 5710
5653 5656 5659 5661 5664 5666 5668 5671 5674 5676 5678 5681 5683 5685 5687 5689 5690 5692 5694 5696 5698 5700 5701 5703 5704 5706 5707 5709 5709 5710 5710 5710 5710 5710 5710 5709 5709 5708 5706 5705 5703 5701 5699
5649 5651 5654 5656 5658 5659 5661 5663 5666 5668 5670 5672 5674 5675 5677 5679 5680 5682 5684 5686 5687 5689 5691 5692 5694 5695 5696 5697 5698 5698 5699 5699 5699 5699 5699 5698 5697 5696 5695 5693 5692 5690 5687
5645 5646 5648 5649 5651 5652 5654 5655 5657 5659 5661 5662 5664 5665 5667 5668 5670 5672 5673 5675 5676 5678 5679 5681 5682 5683 5684 5685 5686 5687 5687 5687 5687 5687 5687 5687 5686 5685 5684 5682 5680 5678 5676
5640 5641 5642 5643 5644 5644 5645 5646 5648 5649 5650 5652 5653 5654 5656 5657 5658 5660 5661 5663 5664 5666 5667 5668 5670 5671 5672 5673 5674 5675 5675 5675 5676 5676 5675 5675 5674 5673 5672 5671 5669 5667 5665
5635 5636 5636 5636 5637 5637 5637 5637 5638 5639 5639 5640 5641 5642 5643 5644 5646 5647 5648 5650 5651 5653 5654 5656 5657 5658 5659 5660 5661 5662 5663 5663 5664 5664 5664 5663 5663 5662 5660 5659 5657 5656 5654
5629 5629 5629 5629 5628 5628 5628 5628 5627 5628 5628 5628 5629 5629 5630 5631 5632 5634 5635 5636 5637 5639 5641 5642 5644 5645 5646 5648 5649 5649 5650 5651 5651 5652 5652 5651 5651 5650 5649 5647 5646 5645 5643
5622 5622 5621 5619 5619 5618 5617 5616 5615 5615 5615 5615 5615 5615 5616 5617 5618 5619 5620 5622 5623 5625 5627 5628 5630 5631 5633 5634 5635 5636 5637 5638 5639 5639 5639 5639 5639 5638 5637 5636 5635 5633 5632
5614 5612 5611 5609 5607 5606 5605 5604 5603 5602 5601 5601 5600 5600 5601 5602 5603 5604 5605 5607 5608 5610 5612 5614 5615 5617 5618 5620 5621 5622 5624 5625 5626 5626 5627 5627 5627 5626 5626 5625 5623 5622 5621
5604 5602 5600 5598 5596 5594 5592 5590 5589 5587 5587 5586 5586 5585 5586 5586 5587 5588 5590 5591 5593 5595 5596 5598 5600 5602 5604 5606 5607 5609 5610 5611 5613 5613 5614 5615 5615 5614 5614 5613 5612 5611 5610
5594 5591 5588 5585 5582 5580 5577 5575 5573 5572 5571 5570 5570 5570 5570 5571 5571 5573 5574 5575 5577 5579 5581 5583 5585 5587 5589 5591 5593 5595 5596 5598 5600 5601 5602 5602 5602 5602 5602 5602 5601 5601 5600
5581 5578 5574 5571 5567 5564 5561 5559 5557 5555 5554 5553 5553 5553 5553 5554 5555 5556 5558 5559 5561 5563 5565 5567 5570 5572 5574 5577 5579 5581 5583 5585 5587 5588 5589 5590 5590 5591 5591 5591 5590 5590 5589
5568 5564 5560 5556 5551 5547 5544 5541 5539 5537 5536 5535 5534 5534 5535 5536 5537 5539 5541 5543 5545 5547 5550 5552 5555 5558 5560 5562 5565 5567 5569 5571 5573 5575 5576 5578 5578 5579 5580 5580 5580 5579 5579
5554 5549 5544 5539 5535 5530 5526 5523 5520 5518 5516 5516 5515 5515 5516 5517 5519 5521 5524 5526 5529 5531 5534 5537 5540 5543 5545 5548 5551 5553 5556 5558 5560 5562 5564 5565 5567 5568 5568 5569 5569 5569 5569
5540 5534 5528 5523 5517 5512 5507 5503 5499 5497 5496 5496 5496 5496 5497 5498 5500 5502 5505 5509 5512 5515 5518 5521 5524 5528 5531 5534 5537 5540 5542 5545 5548 5550 5552 5554 5555 5556 5557 5558 5558 5559 5559
5524 5518 5511 5505 5500 5494 5489 5484 5480 5478 5477 5476 5476 5476 5477 5479 5481 5484 5487 5491 5495 5498 5502 5505 5509 5513 5517 5520 5523 5526 5529 5532 5534 5537 5540 5542 5543 5545 5546 5547 5548 5548 5549